Volver al catálogo

SL-12 R/B(2)

ActivoGEO
NORAD 11862·ROCKET BODY·🇷🇺 Russia

Lanzado Jun 14, 1980 desde Baikonur Cosmodrome

Loading…

TLE

ActualizadoSource: Space-Track

Época: Sep 14, 2026, 08:33 UTC

1 11862U 80049F   26257.35653838 -.00000179  00000-0  00000-0 0  9990
2 11862   7.4465 295.4146 0028413 220.5431 302.0643  0.97940997121086

Sigue SL-12 R/B(2) en tiempo real con AllMySat

Download on the App Store